GEFSMW_prec_meanprecacc_150.txt.gz
Total_Precipitation_Accumulation
1.55 2.00 2.62 3.22 3.90 4.88 5.43 5.48 5.10 4.21 3.53 2.99 2.73 2.46 2.21 1.98 1.69 1.37 1.15 1.03 0.99 0.89 0.90 0.86 0.84 0.85 0.82 0.83 0.98 1.10 1.14 1.01 1.18 1.35 1.21 1.00 0.84 0.79 0.77 0.72 0.74 0.73 0.77
1.38 2.01 2.78 3.52 4.02 4.45 4.70 4.62 4.09 3.26 2.74 2.38 2.29 2.09 1.86 1.50 1.33 1.16 1.03 0.90 0.84 0.78 0.75 0.77 0.71 0.67 0.72 0.72 0.75 0.87 0.90 0.82 0.93 1.08 1.09 0.90 0.81 0.68 0.48 0.52 0.55 0.55 0.69
1.59 2.36 3.16 3.77 3.89 3.80 3.51 3.13 2.81 2.41 2.25 2.18 2.00 1.78 1.67 1.39 1.14 0.91 0.81 0.73 0.64 0.57 0.55 0.53 0.52 0.54 0.55 0.58 0.64 0.72 0.79 0.74 0.69 0.77 0.90 0.78 0.68 0.60 0.49 0.43 0.46 0.54 0.62
1.70 2.42 2.97 3.10 3.10 2.87 2.50 2.23 2.12 2.03 1.92 1.83 1.69 1.38 1.15 1.08 0.93 0.81 0.74 0.67 0.55 0.49 0.46 0.43 0.41 0.41 0.40 0.48 0.47 0.57 0.69 0.71 0.61 0.60 0.63 0.63 0.61 0.59 0.57 0.51 0.44 0.49 0.53
1.27 1.50 1.71 1.78 1.84 1.76 1.82 1.85 1.90 1.91 1.81 1.72 1.60 1.41 1.14 1.06 1.01 0.97 0.92 0.81 0.67 0.56 0.48 0.46 0.42 0.40 0.35 0.38 0.42 0.51 0.61 0.68 0.62 0.55 0.58 0.66 0.65 0.56 0.56 0.55 0.53 0.56 0.45
0.78 0.87 0.93 0.96 1.15 1.17 1.26 1.38 1.44 1.55 1.63 1.57 1.39 1.28 1.14 1.08 1.05 0.95 0.82 0.70 0.63 0.59 0.51 0.50 0.52 0.47 0.43 0.40 0.40 0.45 0.49 0.60 0.68 0.65 0.60 0.63 0.65 0.55 0.51 0.45 0.44 0.52 0.46
0.62 0.74 0.80 0.83 0.97 0.90 0.91 1.04 1.12 1.13 1.20 1.19 1.11 1.07 1.08 1.04 0.96 0.85 0.74 0.62 0.49 0.46 0.45 0.45 0.47 0.49 0.50 0.49 0.48 0.48 0.47 0.52 0.60 0.60 0.61 0.59 0.57 0.60 0.60 0.56 0.48 0.51 0.55
0.49 0.57 0.55 0.62 0.70 0.63 0.67 0.80 0.90 0.91 0.92 0.94 0.95 0.92 0.96 0.85 0.80 0.85 0.75 0.63 0.52 0.46 0.45 0.44 0.42 0.45 0.50 0.53 0.59 0.55 0.54 0.57 0.56 0.51 0.64 0.66 0.57 0.66 0.71 0.74 0.78 0.71 0.72
0.35 0.40 0.34 0.37 0.46 0.52 0.56 0.64 0.77 0.82 0.78 0.81 0.84 0.80 0.85 0.85 0.83 0.81 0.72 0.60 0.61 0.53 0.51 0.49 0.52 0.56 0.59 0.63 0.66 0.61 0.58 0.60 0.56 0.57 0.66 0.70 0.74 0.77 0.72 0.83 0.92 0.94 0.88
0.26 0.26 0.27 0.26 0.32 0.42 0.52 0.61 0.70 0.75 0.73 0.75 0.76 0.66 0.75 0.82 0.88 0.82 0.72 0.64 0.67 0.60 0.61 0.60 0.59 0.63 0.63 0.63 0.67 0.65 0.70 0.73 0.72 0.75 0.78 0.76 0.80 0.88 0.78 0.83 0.91 0.92 0.99
0.24 0.22 0.20 0.21 0.25 0.31 0.43 0.53 0.66 0.71 0.71 0.72 0.79 0.84 0.83 0.74 0.80 0.80 0.79 0.79 0.81 0.72 0.73 0.73 0.74 0.73 0.74 0.78 0.82 0.82 0.87 0.94 1.03 1.05 1.02 1.00 1.01 1.01 0.96 1.00 0.99 0.92 1.01
0.21 0.23 0.22 0.20 0.24 0.27 0.33 0.42 0.52 0.63 0.67 0.70 0.80 0.86 0.91 0.82 0.80 0.81 0.83 0.85 0.91 0.96 0.93 0.87 0.86 0.81 0.84 0.93 0.95 0.97 0.94 0.93 0.96 1.13 1.33 1.32 1.30 1.21 1.08 1.14 1.09 1.04 1.19
0.28 0.25 0.29 0.30 0.29 0.32 0.34 0.42 0.51 0.64 0.74 0.75 0.78 0.85 0.88 0.84 0.82 0.92 0.99 0.97 1.05 1.12 1.13 1.09 0.99 0.89 0.87 0.88 0.92 0.99 1.00 1.01 1.10 1.24 1.36 1.45 1.55 1.41 1.28 1.23 1.20 1.22 1.29
0.30 0.26 0.26 0.28 0.31 0.40 0.43 0.50 0.67 0.65 0.63 0.71 0.77 0.82 0.85 0.88 0.91 0.97 1.04 1.05 1.09 1.13 1.17 1.17 1.14 1.08 0.96 0.88 0.89 0.92 0.96 1.11 1.28 1.34 1.27 1.35 1.59 1.64 1.55 1.40 1.31 1.31 1.36
0.31 0.26 0.23 0.25 0.34 0.43 0.45 0.51 0.58 0.69 0.71 0.83 0.93 0.99 1.07 1.14 1.17 1.21 1.20 1.17 1.19 1.20 1.27 1.33 1.31 1.23 1.10 0.93 0.94 1.01 0.97 1.09 1.17 1.16 1.09 1.07 1.23 1.44 1.55 1.43 1.37 1.37 1.36
0.30 0.30 0.32 0.33 0.35 0.41 0.48 0.54 0.54 0.64 0.78 0.96 1.09 1.18 1.31 1.40 1.49 1.62 1.72 1.63 1.53 1.58 1.65 1.60 1.50 1.39 1.08 1.03 1.00 0.98 1.00 1.06 1.06 1.05 1.02 0.92 0.86 0.93 1.11 1.27 1.39 1.46 1.39
0.43 0.43 0.46 0.45 0.44 0.44 0.48 0.52 0.59 0.72 0.89 1.09 1.28 1.39 1.53 1.67 1.81 1.91 1.95 1.90 1.93 1.99 2.01 1.91 1.73 1.59 1.47 1.30 1.10 1.00 0.97 0.97 0.97 1.00 0.99 0.82 0.74 0.83 0.85 0.99 1.10 1.21 1.27
0.48 0.49 0.59 0.61 0.56 0.56 0.62 0.70 0.81 0.96 1.15 1.33 1.49 1.65 1.67 1.71 1.79 1.87 1.83 1.84 1.96 2.03 2.02 1.92 1.79 1.70 1.60 1.44 1.19 1.09 0.93 0.95 0.98 1.01 1.01 0.96 0.90 0.87 0.91 0.94 0.94 0.94 1.00
0.54 0.55 0.61 0.69 0.71 0.70 0.76 0.83 0.87 0.98 1.17 1.34 1.43 1.49 1.60 1.71 1.75 1.77 1.79 1.83 1.86 1.78 1.68 1.63 1.65 1.64 1.67 1.53 1.25 1.14 1.04 1.12 1.13 1.12 1.10 1.09 1.03 1.06 0.90 0.85 0.88 0.89 0.91
0.53 0.55 0.55 0.59 0.66 0.75 0.78 0.81 0.88 0.99 1.19 1.33 1.36 1.37 1.49 1.61 1.69 1.73 1.77 1.73 1.69 1.64 1.59 1.53 1.55 1.57 1.58 1.52 1.21 1.11 1.07 1.17 1.19 1.22 1.20 1.14 1.01 0.96 0.82 0.78 0.85 0.84 0.85
0.53 0.53 0.57 0.58 0.61 0.71 0.76 0.84 0.94 1.01 1.07 1.17 1.24 1.31 1.46 1.57 1.62 1.69 1.69 1.67 1.63 1.65 1.65 1.59 1.50 1.47 1.47 1.45 1.17 1.04 0.97 1.10 1.22 1.21 1.16 1.13 1.03 0.81 0.73 0.70 0.74 0.77 0.80
0.60 0.59 0.60 0.71 0.76 0.79 0.79 0.83 0.83 0.82 0.90 0.96 1.03 1.06 1.17 1.31 1.37 1.47 1.47 1.50 1.47 1.44 1.42 1.39 1.31 1.28 1.29 1.23 1.11 0.92 0.83 0.90 1.05 1.14 1.17 1.19 1.03 0.78 0.66 0.56 0.53 0.50 0.48
0.71 0.68 0.66 0.68 0.73 0.83 0.87 0.92 0.87 0.82 0.80 0.80 0.81 0.84 0.92 1.09 1.25 1.30 1.28 1.30 1.29 1.27 1.24 1.22 1.18 1.15 1.13 1.07 0.87 0.73 0.63 0.67 0.80 0.98 1.11 1.04 0.87 0.72 0.59 0.51 0.46 0.43 0.41
0.50 0.57 0.61 0.67 0.72 0.72 0.73 0.79 0.82 0.81 0.83 0.83 0.84 0.86 0.92 1.02 1.26 1.38 1.30 1.23 1.21 1.18 1.17 1.13 1.13 1.15 1.18 1.12 0.92 0.71 0.56 0.60 0.73 0.84 0.89 0.90 0.89 0.85 0.78 0.67 0.56 0.47 0.48
0.36 0.40 0.45 0.48 0.51 0.51 0.55 0.60 0.64 0.72 0.76 0.73 0.71 0.72 0.79 0.92 1.12 1.27 1.26 1.12 1.09 1.10 1.12 1.10 1.08 1.03 1.00 0.98 0.86 0.72 0.69 0.73 0.81 0.81 0.88 0.90 0.97 1.02 1.02 0.96 0.86 0.79 0.76
0.33 0.38 0.41 0.43 0.45 0.47 0.54 0.63 0.70 0.78 0.81 0.77 0.72 0.70 0.72 0.82 1.01 1.21 1.28 1.12 0.93 0.92 0.91 0.86 0.82 0.79 0.72 0.67 0.64 0.61 0.59 0.64 0.69 0.67 0.83 0.96 1.06 1.13 1.16 1.16 1.08 0.99 0.90

GEFSMW_prec_meanprecacc_156.txt.gz
Total_Precipitation_Accumulation
1.55 2.01 2.64 3.24 3.96 4.97 5.57 5.64 5.24 4.38 3.69 3.07 2.79 2.51 2.26 2.04 1.75 1.43 1.20 1.09 1.06 0.97 1.02 0.95 0.95 0.95 0.90 0.92 1.04 1.17 1.22 1.06 1.23 1.43 1.30 1.06 0.86 0.83 0.81 0.75 0.77 0.76 0.79
1.39 2.02 2.80 3.56 4.10 4.57 4.86 4.82 4.32 3.48 2.92 2.49 2.37 2.16 1.92 1.56 1.41 1.23 1.09 0.96 0.91 0.85 0.83 0.88 0.80 0.76 0.82 0.82 0.85 0.97 0.98 0.87 0.97 1.14 1.17 0.97 0.87 0.73 0.49 0.56 0.59 0.57 0.72
1.60 2.37 3.18 3.85 4.06 4.01 3.76 3.36 3.03 2.61 2.43 2.31 2.09 1.88 1.77 1.48 1.23 0.99 0.88 0.80 0.73 0.66 0.63 0.62 0.59 0.62 0.63 0.67 0.74 0.82 0.89 0.84 0.76 0.83 0.97 0.85 0.75 0.66 0.52 0.44 0.47 0.56 0.65
1.71 2.43 2.99 3.17 3.22 3.07 2.70 2.40 2.27 2.17 2.04 1.94 1.78 1.46 1.24 1.16 1.01 0.90 0.84 0.76 0.65 0.58 0.55 0.51 0.50 0.48 0.45 0.56 0.54 0.63 0.78 0.82 0.69 0.67 0.69 0.68 0.67 0.68 0.62 0.54 0.45 0.51 0.55
1.28 1.51 1.74 1.83 1.93 1.90 1.93 1.93 1.97 2.02 1.89 1.80 1.70 1.51 1.22 1.15 1.11 1.07 1.03 0.92 0.77 0.66 0.56 0.52 0.49 0.47 0.41 0.45 0.48 0.57 0.68 0.75 0.69 0.62 0.64 0.72 0.71 0.62 0.62 0.62 0.58 0.58 0.46
0.79 0.88 0.95 1.00 1.20 1.25 1.33 1.45 1.51 1.62 1.70 1.64 1.47 1.36 1.22 1.18 1.17 1.08 0.91 0.79 0.73 0.68 0.60 0.57 0.60 0.54 0.49 0.47 0.47 0.52 0.56 0.69 0.77 0.74 0.67 0.69 0.71 0.59 0.56 0.51 0.51 0.56 0.48
0.62 0.75 0.81 0.85 0.99 0.96 1.01 1.11 1.18 1.19 1.27 1.25 1.16 1.14 1.17 1.15 1.06 0.97 0.86 0.73 0.57 0.53 0.56 0.53 0.56 0.56 0.57 0.57 0.57 0.58 0.54 0.61 0.70 0.69 0.68 0.64 0.63 0.65 0.64 0.61 0.53 0.56 0.57
0.49 0.57 0.56 0.63 0.72 0.67 0.73 0.84 0.95 0.96 0.97 0.99 1.00 0.98 1.05 0.96 0.90 0.94 0.87 0.74 0.60 0.54 0.54 0.52 0.49 0.52 0.58 0.60 0.68 0.63 0.63 0.64 0.63 0.60 0.72 0.71 0.62 0.70 0.74 0.78 0.83 0.77 0.77
0.36 0.41 0.35 0.39 0.48 0.54 0.59 0.66 0.80 0.86 0.83 0.86 0.90 0.86 0.92 0.93 0.93 0.90 0.83 0.71 0.70 0.60 0.58 0.57 0.60 0.63 0.67 0.70 0.75 0.69 0.66 0.68 0.62 0.63 0.73 0.76 0.78 0.80 0.75 0.86 0.96 1.01 0.97
0.26 0.26 0.27 0.27 0.34 0.44 0.55 0.64 0.73 0.79 0.78 0.81 0.82 0.70 0.79 0.88 0.97 0.93 0.82 0.76 0.77 0.67 0.69 0.67 0.66 0.70 0.68 0.68 0.74 0.72 0.77 0.80 0.78 0.81 0.85 0.84 0.86 0.94 0.86 0.92 1.00 1.03 1.10
0.24 0.22 0.20 0.22 0.26 0.33 0.45 0.55 0.69 0.75 0.75 0.77 0.84 0.88 0.87 0.78 0.85 0.87 0.86 0.85 0.88 0.79 0.79 0.81 0.82 0.81 0.81 0.84 0.88 0.87 0.92 1.01 1.13 1.15 1.13 1.13 1.15 1.15 1.08 1.12 1.10 1.05 1.15
0.21 0.23 0.23 0.22 0.25 0.28 0.33 0.42 0.54 0.66 0.70 0.74 0.84 0.90 0.94 0.85 0.83 0.85 0.89 0.91 0.98 1.02 0.98 0.93 0.93 0.87 0.89 0.99 1.02 1.03 1.01 1.01 1.06 1.24 1.45 1.45 1.43 1.33 1.19 1.24 1.20 1.16 1.31
0.28 0.26 0.29 0.30 0.30 0.34 0.35 0.43 0.53 0.67 0.77 0.79 0.82 0.89 0.93 0.87 0.86 0.96 1.04 1.04 1.13 1.19 1.19 1.14 1.05 0.96 0.94 0.96 1.00 1.08 1.09 1.11 1.19 1.33 1.45 1.54 1.65 1.52 1.39 1.33 1.29 1.31 1.38
0.30 0.26 0.26 0.28 0.32 0.41 0.44 0.52 0.70 0.68 0.65 0.75 0.81 0.86 0.89 0.92 0.95 1.02 1.09 1.11 1.16 1.22 1.27 1.26 1.21 1.15 1.04 0.96 0.98 1.02 1.06 1.19 1.35 1.40 1.34 1.43 1.68 1.74 1.68 1.52 1.42 1.42 1.47
0.32 0.26 0.24 0.25 0.34 0.44 0.47 0.52 0.60 0.72 0.73 0.85 0.96 1.01 1.11 1.19 1.22 1.26 1.25 1.22 1.24 1.24 1.33 1.40 1.39 1.32 1.18 1.00 1.02 1.11 1.07 1.17 1.23 1.22 1.15 1.14 1.31 1.53 1.66 1.54 1.48 1.49 1.48
0.30 0.30 0.32 0.33 0.36 0.42 0.49 0.55 0.56 0.67 0.81 0.99 1.14 1.24 1.37 1.45 1.53 1.66 1.76 1.67 1.58 1.62 1.69 1.65 1.55 1.45 1.14 1.10 1.06 1.05 1.07 1.13 1.14 1.12 1.09 1.00 0.94 1.02 1.20 1.36 1.49 1.56 1.49
0.43 0.44 0.46 0.46 0.46 0.46 0.50 0.54 0.61 0.74 0.92 1.12 1.32 1.46 1.58 1.71 1.86 1.96 1.99 1.94 1.98 2.04 2.05 1.97 1.79 1.65 1.53 1.36 1.15 1.05 1.01 1.01 1.02 1.05 1.05 0.89 0.81 0.91 0.91 1.06 1.18 1.30 1.36
0.49 0.50 0.59 0.62 0.57 0.58 0.65 0.73 0.84 0.99 1.18 1.36 1.52 1.67 1.71 1.74 1.83 1.92 1.87 1.88 2.00 2.08 2.08 2.01 1.89 1.80 1.69 1.51 1.24 1.16 0.99 1.00 1.03 1.06 1.06 1.02 0.96 0.94 0.97 1.00 1.01 1.02 1.09
0.55 0.56 0.63 0.71 0.73 0.72 0.79 0.87 0.91 1.03 1.21 1.37 1.45 1.50 1.61 1.72 1.76 1.79 1.82 1.86 1.89 1.81 1.72 1.70 1.71 1.71 1.76 1.62 1.32 1.20 1.09 1.17 1.17 1.16 1.16 1.15 1.09 1.14 0.99 0.93 0.97 0.99 1.02
0.53 0.57 0.57 0.61 0.69 0.78 0.81 0.84 0.91 1.03 1.22 1.35 1.37 1.37 1.50 1.62 1.69 1.74 1.78 1.75 1.71 1.65 1.61 1.54 1.57 1.60 1.61 1.57 1.25 1.15 1.09 1.19 1.21 1.24 1.23 1.17 1.05 1.02 0.88 0.82 0.90 0.91 0.91
0.53 0.54 0.59 0.61 0.64 0.74 0.79 0.87 0.98 1.04 1.10 1.19 1.26 1.33 1.47 1.59 1.65 1.72 1.72 1.69 1.65 1.66 1.66 1.60 1.52 1.50 1.50 1.48 1.21 1.08 1.00 1.12 1.24 1.23 1.18 1.15 1.05 0.83 0.76 0.73 0.78 0.82 0.84
0.61 0.61 0.62 0.74 0.79 0.82 0.81 0.87 0.88 0.88 0.94 0.99 1.06 1.09 1.19 1.34 1.41 1.50 1.50 1.53 1.50 1.47 1.45 1.42 1.35 1.31 1.33 1.26 1.15 0.96 0.86 0.93 1.07 1.17 1.19 1.21 1.05 0.80 0.68 0.58 0.55 0.53 0.50
0.72 0.70 0.68 0.71 0.76 0.85 0.89 0.94 0.90 0.84 0.83 0.84 0.84 0.88 0.95 1.12 1.28 1.33 1.32 1.34 1.35 1.32 1.29 1.26 1.21 1.18 1.15 1.09 0.91 0.76 0.66 0.69 0.82 1.00 1.12 1.05 0.88 0.73 0.61 0.53 0.48 0.44 0.42
0.51 0.58 0.63 0.69 0.74 0.74 0.76 0.83 0.84 0.82 0.85 0.86 0.86 0.89 0.96 1.07 1.31 1.42 1.33 1.27 1.25 1.21 1.20 1.15 1.16 1.19 1.21 1.15 0.95 0.74 0.59 0.63 0.75 0.86 0.91 0.92 0.91 0.87 0.80 0.68 0.57 0.48 0.50
0.37 0.42 0.47 0.50 0.53 0.53 0.57 0.62 0.67 0.75 0.78 0.77 0.73 0.74 0.82 0.95 1.16 1.30 1.30 1.15 1.12 1.14 1.16 1.13 1.11 1.06 1.03 1.01 0.90 0.76 0.73 0.77 0.85 0.85 0.91 0.93 1.00 1.04 1.03 0.97 0.87 0.80 0.77
0.34 0.39 0.42 0.45 0.47 0.49 0.56 0.64 0.72 0.81 0.84 0.81 0.75 0.73 0.75 0.85 1.04 1.25 1.33 1.16 0.97 0.96 0.95 0.90 0.87 0.83 0.76 0.72 0.71 0.68 0.67 0.73 0.76 0.73 0.88 1.01 1.09 1.16 1.17 1.17 1.10 1.00 0.91

GEFSMW_prec_meanprecacc_162.txt.gz
Total_Precipitation_Accumulation
1.55 2.01 2.64 3.25 4.00 5.06 5.67 5.73 5.32 4.49 3.85 3.30 2.99 2.67 2.37 2.12 1.81 1.47 1.24 1.11 1.08 1.00 1.07 1.01 1.01 0.99 0.96 0.98 1.10 1.25 1.31 1.15 1.29 1.52 1.43 1.15 0.90 0.86 0.83 0.76 0.78 0.79 0.83
1.40 2.03 2.81 3.58 4.15 4.68 4.98 4.93 4.40 3.58 3.06 2.68 2.56 2.33 2.07 1.67 1.49 1.30 1.17 1.00 0.94 0.89 0.88 0.94 0.84 0.82 0.90 0.88 0.91 1.04 1.07 0.95 1.04 1.22 1.30 1.11 1.01 0.82 0.52 0.58 0.60 0.59 0.74
1.60 2.38 3.19 3.88 4.11 4.08 3.84 3.48 3.17 2.76 2.61 2.50 2.27 2.04 1.92 1.61 1.36 1.11 0.98 0.87 0.78 0.70 0.68 0.68 0.65 0.68 0.68 0.74 0.81 0.88 0.98 0.94 0.85 0.89 1.04 0.96 0.91 0.82 0.59 0.47 0.48 0.57 0.68
1.71 2.44 3.01 3.20 3.26 3.11 2.76 2.52 2.43 2.35 2.23 2.12 1.98 1.64 1.36 1.27 1.14 1.01 0.94 0.85 0.73 0.65 0.61 0.57 0.56 0.55 0.51 0.65 0.59 0.69 0.85 0.91 0.78 0.74 0.73 0.73 0.77 0.82 0.78 0.63 0.49 0.55 0.58
1.29 1.52 1.75 1.88 1.98 1.95 1.99 2.02 2.10 2.16 2.03 1.95 1.88 1.70 1.37 1.29 1.26 1.21 1.18 1.04 0.87 0.75 0.62 0.60 0.58 0.56 0.48 0.53 0.56 0.68 0.76 0.82 0.76 0.71 0.71 0.79 0.79 0.69 0.72 0.73 0.68 0.66 0.53
0.79 0.89 0.97 1.05 1.25 1.28 1.37 1.52 1.60 1.71 1.80 1.75 1.59 1.50 1.36 1.35 1.36 1.25 1.07 0.91 0.86 0.80 0.68 0.65 0.71 0.64 0.60 0.59 0.58 0.63 0.66 0.79 0.86 0.82 0.74 0.77 0.79 0.67 0.65 0.60 0.59 0.66 0.58
0.63 0.76 0.85 0.90 1.03 0.99 1.04 1.16 1.24 1.27 1.36 1.35 1.27 1.24 1.29 1.28 1.19 1.09 0.98 0.85 0.69 0.65 0.68 0.64 0.68 0.66 0.69 0.66 0.67 0.70 0.64 0.70 0.80 0.77 0.75 0.71 0.67 0.70 0.72 0.71 0.64 0.69 0.68
0.52 0.61 0.61 0.66 0.74 0.70 0.78 0.89 1.00 1.04 1.06 1.10 1.11 1.09 1.15 1.07 1.01 1.06 0.98 0.85 0.70 0.65 0.64 0.61 0.59 0.62 0.66 0.69 0.82 0.74 0.73 0.75 0.73 0.68 0.84 0.81 0.68 0.75 0.80 0.87 0.96 0.92 0.91
0.38 0.43 0.36 0.39 0.49 0.57 0.64 0.71 0.86 0.95 0.93 0.98 1.01 0.98 1.03 1.05 1.06 1.04 0.95 0.81 0.79 0.70 0.69 0.65 0.71 0.76 0.78 0.81 0.89 0.82 0.78 0.81 0.74 0.74 0.85 0.86 0.85 0.87 0.81 0.94 1.09 1.17 1.13
0.27 0.29 0.28 0.27 0.34 0.46 0.59 0.69 0.80 0.88 0.90 0.94 0.93 0.79 0.91 0.99 1.10 1.06 0.96 0.88 0.89 0.79 0.80 0.78 0.79 0.85 0.84 0.83 0.90 0.87 0.91 0.95 0.92 0.93 0.96 0.96 0.96 1.03 0.94 1.01 1.11 1.16 1.24
0.25 0.25 0.22 0.23 0.26 0.34 0.48 0.59 0.74 0.81 0.83 0.87 0.94 0.99 0.98 0.89 0.95 0.99 0.98 0.98 0.99 0.90 0.89 0.90 0.94 0.93 0.94 0.98 1.04 1.01 1.06 1.16 1.28 1.27 1.23 1.24 1.27 1.26 1.19 1.23 1.21 1.17 1.29
0.21 0.23 0.25 0.24 0.26 0.29 0.36 0.45 0.58 0.70 0.76 0.83 0.93 1.00 1.05 0.95 0.91 0.94 0.99 1.03 1.09 1.12 1.07 1.01 1.01 0.96 0.98 1.11 1.16 1.19 1.19 1.19 1.22 1.39 1.61 1.60 1.56 1.46 1.32 1.37 1.31 1.27 1.44
0.28 0.26 0.31 0.32 0.31 0.35 0.36 0.45 0.57 0.71 0.81 0.86 0.91 0.99 1.03 0.96 0.93 1.04 1.13 1.14 1.24 1.30 1.28 1.23 1.13 1.06 1.06 1.09 1.14 1.23 1.23 1.27 1.35 1.49 1.60 1.67 1.78 1.64 1.50 1.44 1.39 1.41 1.50
0.31 0.27 0.27 0.29 0.33 0.42 0.45 0.53 0.72 0.70 0.69 0.81 0.90 0.95 0.98 0.99 1.03 1.11 1.19 1.21 1.26 1.32 1.38 1.35 1.30 1.27 1.16 1.07 1.08 1.11 1.16 1.31 1.46 1.50 1.44 1.53 1.78 1.85 1.80 1.63 1.55 1.55 1.62
0.32 0.27 0.24 0.27 0.35 0.46 0.48 0.53 0.61 0.74 0.76 0.90 1.01 1.08 1.18 1.26 1.30 1.35 1.35 1.31 1.31 1.32 1.42 1.49 1.50 1.43 1.27 1.08 1.11 1.19 1.15 1.26 1.32 1.31 1.22 1.21 1.39 1.62 1.75 1.61 1.56 1.58 1.59
0.30 0.30 0.32 0.34 0.38 0.44 0.50 0.56 0.58 0.70 0.85 1.05 1.21 1.33 1.47 1.54 1.61 1.73 1.83 1.73 1.63 1.69 1.76 1.71 1.63 1.54 1.22 1.20 1.15 1.13 1.16 1.22 1.22 1.20 1.17 1.07 1.01 1.07 1.24 1.41 1.54 1.64 1.57
0.43 0.44 0.46 0.47 0.48 0.50 0.54 0.58 0.64 0.76 0.96 1.18 1.41 1.55 1.66 1.77 1.90 1.99 2.02 1.97 2.02 2.09 2.12 2.03 1.85 1.70 1.58 1.43 1.21 1.11 1.08 1.10 1.10 1.13 1.12 0.94 0.85 0.95 0.94 1.10 1.23 1.35 1.41
0.50 0.50 0.60 0.63 0.58 0.60 0.69 0.77 0.89 1.05 1.24 1.40 1.57 1.73 1.76 1.78 1.86 1.95 1.91 1.93 2.04 2.12 2.14 2.07 1.95 1.86 1.73 1.55 1.27 1.19 1.04 1.06 1.08 1.11 1.11 1.06 1.00 0.97 1.00 1.03 1.03 1.04 1.11
0.56 0.57 0.63 0.72 0.75 0.76 0.84 0.90 0.97 1.08 1.26 1.41 1.49 1.54 1.64 1.75 1.80 1.84 1.89 1.94 1.95 1.86 1.77 1.75 1.76 1.76 1.80 1.65 1.34 1.22 1.12 1.20 1.20 1.18 1.18 1.17 1.10 1.15 1.01 0.95 0.98 1.00 1.04
0.55 0.59 0.58 0.63 0.71 0.81 0.84 0.86 0.95 1.07 1.26 1.41 1.42 1.43 1.55 1.66 1.73 1.79 1.85 1.82 1.76 1.70 1.66 1.59 1.61 1.64 1.65 1.59 1.27 1.16 1.10 1.21 1.23 1.26 1.25 1.19 1.06 1.03 0.89 0.83 0.91 0.92 0.93
0.54 0.55 0.61 0.64 0.67 0.76 0.81 0.89 0.99 1.06 1.13 1.24 1.31 1.39 1.52 1.64 1.69 1.77 1.77 1.74 1.69 1.70 1.71 1.64 1.57 1.53 1.52 1.49 1.23 1.09 1.01 1.14 1.27 1.25 1.20 1.17 1.06 0.84 0.76 0.73 0.79 0.82 0.85
0.62 0.62 0.65 0.77 0.83 0.86 0.85 0.90 0.91 0.90 0.97 1.03 1.10 1.15 1.24 1.39 1.45 1.54 1.54 1.57 1.53 1.49 1.47 1.45 1.37 1.33 1.34 1.28 1.17 0.98 0.88 0.95 1.09 1.19 1.20 1.22 1.07 0.81 0.69 0.59 0.56 0.54 0.51
0.74 0.71 0.70 0.73 0.78 0.89 0.93 0.98 0.93 0.87 0.86 0.87 0.88 0.92 0.99 1.17 1.32 1.37 1.35 1.38 1.38 1.35 1.31 1.28 1.23 1.19 1.16 1.10 0.92 0.77 0.67 0.71 0.84 1.02 1.15 1.07 0.90 0.75 0.62 0.55 0.51 0.46 0.44
0.53 0.60 0.66 0.72 0.77 0.78 0.80 0.86 0.87 0.85 0.88 0.90 0.90 0.95 1.01 1.12 1.35 1.45 1.36 1.30 1.28 1.24 1.22 1.18 1.18 1.21 1.24 1.17 0.97 0.76 0.61 0.65 0.77 0.88 0.95 0.96 0.94 0.90 0.83 0.71 0.60 0.50 0.51
0.39 0.45 0.52 0.54 0.57 0.57 0.61 0.66 0.70 0.77 0.81 0.81 0.78 0.78 0.85 0.98 1.20 1.33 1.32 1.17 1.14 1.17 1.19 1.17 1.14 1.08 1.05 1.03 0.91 0.78 0.75 0.80 0.88 0.89 0.95 0.97 1.04 1.07 1.07 1.01 0.90 0.83 0.80
0.35 0.41 0.46 0.49 0.51 0.54 0.61 0.69 0.77 0.85 0.87 0.83 0.77 0.75 0.77 0.87 1.06 1.27 1.35 1.19 1.00 1.00 0.98 0.94 0.90 0.87 0.79 0.75 0.73 0.71 0.69 0.75 0.80 0.77 0.91 1.05 1.14 1.22 1.23 1.22 1.12 1.02 0.92

GEFSMW_prec_meanprecacc_168.txt.gz
Total_Precipitation_Accumulation
1.57 2.03 2.66 3.28 4.05 5.12 5.75 5.81 5.40 4.59 3.96 3.44 3.15 2.80 2.55 2.36 1.96 1.58 1.33 1.16 1.11 1.02 1.09 1.03 1.02 1.01 0.99 1.00 1.13 1.28 1.34 1.18 1.34 1.58 1.48 1.23 0.99 0.93 0.90 0.81 0.83 0.84 0.88
1.43 2.05 2.83 3.60 4.19 4.72 5.05 5.02 4.52 3.70 3.18 2.79 2.68 2.43 2.19 1.87 1.64 1.41 1.28 1.07 0.99 0.92 0.90 0.96 0.86 0.83 0.92 0.90 0.95 1.07 1.09 0.98 1.08 1.28 1.35 1.17 1.11 0.90 0.59 0.64 0.66 0.64 0.80
1.63 2.41 3.22 3.92 4.16 4.14 3.90 3.53 3.24 2.87 2.73 2.59 2.36 2.13 2.03 1.74 1.49 1.23 1.10 0.94 0.82 0.74 0.71 0.71 0.68 0.70 0.70 0.76 0.84 0.91 1.00 0.96 0.88 0.93 1.08 0.99 0.95 0.87 0.66 0.53 0.56 0.67 0.76
1.76 2.49 3.06 3.23 3.30 3.15 2.83 2.61 2.52 2.44 2.32 2.20 2.07 1.73 1.48 1.38 1.22 1.09 1.02 0.92 0.79 0.71 0.67 0.60 0.60 0.61 0.57 0.69 0.63 0.73 0.88 0.93 0.80 0.79 0.79 0.79 0.84 0.85 0.81 0.68 0.57 0.68 0.71
1.33 1.57 1.79 1.91 2.02 1.99 2.05 2.08 2.17 2.24 2.09 2.02 1.96 1.80 1.49 1.42 1.37 1.31 1.28 1.13 0.95 0.81 0.67 0.65 0.65 0.64 0.54 0.58 0.61 0.73 0.80 0.85 0.78 0.74 0.77 0.84 0.84 0.73 0.76 0.78 0.74 0.75 0.63
0.82 0.92 1.01 1.12 1.34 1.36 1.41 1.55 1.63 1.76 1.87 1.85 1.69 1.60 1.47 1.49 1.49 1.39 1.21 1.02 0.93 0.85 0.74 0.72 0.78 0.71 0.66 0.65 0.63 0.68 0.71 0.82 0.88 0.85 0.78 0.81 0.85 0.72 0.70 0.64 0.63 0.72 0.67
0.64 0.80 0.91 1.02 1.20 1.10 1.08 1.18 1.27 1.32 1.43 1.42 1.37 1.36 1.41 1.41 1.30 1.20 1.09 0.93 0.77 0.74 0.76 0.74 0.78 0.75 0.78 0.72 0.73 0.74 0.67 0.74 0.83 0.80 0.78 0.74 0.71 0.76 0.79 0.78 0.70 0.74 0.76
0.54 0.64 0.64 0.74 0.83 0.75 0.81 0.91 1.03 1.10 1.13 1.16 1.19 1.18 1.23 1.16 1.10 1.14 1.07 0.92 0.78 0.73 0.71 0.68 0.68 0.71 0.75 0.75 0.89 0.81 0.79 0.81 0.78 0.74 0.89 0.85 0.72 0.81 0.86 0.94 1.03 0.99 0.99
0.42 0.47 0.37 0.41 0.52 0.62 0.68 0.73 0.88 0.99 0.99 1.05 1.07 1.03 1.07 1.10 1.14 1.13 1.04 0.90 0.88 0.80 0.78 0.75 0.80 0.83 0.85 0.89 0.99 0.93 0.89 0.93 0.83 0.83 0.94 0.94 0.91 0.92 0.88 1.03 1.19 1.29 1.24
0.30 0.31 0.29 0.29 0.36 0.49 0.65 0.73 0.83 0.91 0.94 0.99 0.98 0.82 0.94 1.04 1.17 1.12 1.03 0.93 0.96 0.87 0.89 0.87 0.87 0.93 0.91 0.91 1.01 1.00 1.05 1.09 1.06 1.05 1.07 1.05 1.04 1.12 1.04 1.11 1.22 1.30 1.40
0.31 0.28 0.24 0.24 0.27 0.36 0.52 0.65 0.77 0.84 0.87 0.91 0.98 1.03 1.02 0.93 1.02 1.06 1.04 1.06 1.06 0.97 0.96 0.97 1.02 1.00 1.02 1.07 1.14 1.09 1.15 1.26 1.40 1.39 1.35 1.36 1.39 1.37 1.30 1.33 1.32 1.30 1.42
0.26 0.26 0.28 0.30 0.30 0.30 0.38 0.49 0.60 0.73 0.79 0.87 0.98 1.05 1.10 1.00 0.97 0.99 1.06 1.10 1.15 1.18 1.14 1.08 1.08 1.02 1.04 1.17 1.24 1.27 1.29 1.31 1.34 1.50 1.70 1.69 1.63 1.53 1.39 1.44 1.38 1.35 1.52
0.33 0.30 0.34 0.38 0.41 0.40 0.39 0.47 0.58 0.72 0.84 0.91 0.97 1.03 1.07 1.01 0.99 1.10 1.19 1.20 1.30 1.37 1.37 1.30 1.20 1.13 1.11 1.16 1.22 1.30 1.30 1.33 1.40 1.53 1.64 1.72 1.82 1.68 1.55 1.49 1.44 1.47 1.57
0.37 0.30 0.30 0.32 0.38 0.50 0.54 0.59 0.76 0.77 0.75 0.87 0.95 1.01 1.04 1.05 1.09 1.17 1.27 1.29 1.34 1.44 1.50 1.44 1.38 1.34 1.23 1.14 1.13 1.15 1.20 1.35 1.49 1.53 1.48 1.58 1.83 1.90 1.84 1.67 1.59 1.61 1.69
0.37 0.29 0.27 0.29 0.37 0.49 0.52 0.57 0.68 0.87 0.88 1.00 1.12 1.17 1.25 1.33 1.40 1.46 1.47 1.43 1.42 1.43 1.54 1.61 1.61 1.53 1.34 1.13 1.14 1.23 1.19 1.31 1.38 1.35 1.27 1.26 1.45 1.67 1.78 1.64 1.59 1.62 1.63
0.36 0.37 0.38 0.38 0.41 0.46 0.53 0.59 0.62 0.76 0.93 1.17 1.42 1.46 1.54 1.62 1.71 1.85 1.94 1.84 1.74 1.80 1.88 1.82 1.72 1.61 1.26 1.24 1.18 1.16 1.20 1.27 1.28 1.25 1.22 1.11 1.05 1.10 1.27 1.43 1.56 1.66 1.59
0.51 0.51 0.57 0.55 0.52 0.53 0.57 0.61 0.67 0.80 1.02 1.26 1.51 1.70 1.81 1.88 1.98 2.08 2.10 2.03 2.07 2.14 2.17 2.08 1.90 1.74 1.61 1.47 1.25 1.15 1.11 1.13 1.12 1.15 1.14 0.97 0.88 0.97 0.96 1.11 1.24 1.36 1.43
0.60 0.59 0.69 0.73 0.67 0.65 0.73 0.82 0.95 1.10 1.29 1.46 1.62 1.79 1.82 1.84 1.91 2.00 1.95 1.96 2.06 2.14 2.16 2.10 1.99 1.89 1.76 1.57 1.29 1.21 1.05 1.07 1.09 1.12 1.12 1.08 1.02 0.99 1.02 1.04 1.05 1.06 1.12
0.64 0.68 0.73 0.80 0.81 0.81 0.89 0.95 1.03 1.15 1.32 1.45 1.53 1.58 1.68 1.77 1.82 1.86 1.91 1.96 1.97 1.89 1.81 1.79 1.81 1.80 1.83 1.68 1.36 1.23 1.12 1.21 1.21 1.19 1.19 1.19 1.12 1.19 1.05 0.98 1.00 1.01 1.04
0.60 0.69 0.68 0.70 0.77 0.85 0.89 0.91 1.00 1.14 1.33 1.46 1.47 1.47 1.58 1.68 1.75 1.80 1.86 1.84 1.79 1.75 1.71 1.66 1.68 1.70 1.71 1.64 1.30 1.18 1.12 1.23 1.24 1.27 1.26 1.20 1.08 1.05 0.92 0.86 0.93 0.93 0.94
0.60 0.62 0.68 0.71 0.73 0.80 0.86 0.94 1.05 1.13 1.20 1.29 1.35 1.42 1.57 1.68 1.73 1.79 1.78 1.75 1.71 1.74 1.77 1.70 1.61 1.57 1.57 1.56 1.28 1.14 1.04 1.16 1.29 1.27 1.22 1.19 1.09 0.86 0.79 0.76 0.80 0.84 0.87
0.70 0.72 0.75 0.84 0.88 0.91 0.92 0.99 0.98 0.97 1.04 1.08 1.13 1.17 1.27 1.41 1.47 1.56 1.56 1.59 1.56 1.52 1.51 1.49 1.41 1.37 1.38 1.32 1.22 1.03 0.93 1.00 1.14 1.24 1.25 1.26 1.11 0.85 0.73 0.62 0.59 0.56 0.53
0.86 0.84 0.81 0.84 0.88 0.95 1.01 1.06 1.00 0.93 0.92 0.91 0.91 0.95 1.01 1.19 1.34 1.39 1.38 1.40 1.41 1.38 1.35 1.31 1.26 1.23 1.20 1.15 0.97 0.83 0.74 0.79 0.92 1.10 1.25 1.17 0.98 0.81 0.67 0.59 0.54 0.49 0.45
0.62 0.69 0.74 0.79 0.87 0.84 0.86 0.92 0.92 0.89 0.91 0.94 0.94 0.97 1.04 1.15 1.38 1.48 1.39 1.33 1.31 1.27 1.26 1.21 1.22 1.24 1.27 1.21 1.01 0.80 0.66 0.70 0.83 0.94 1.02 1.04 1.02 0.96 0.88 0.76 0.63 0.53 0.53
0.46 0.50 0.56 0.58 0.62 0.62 0.66 0.70 0.74 0.81 0.84 0.84 0.81 0.81 0.87 1.00 1.22 1.35 1.34 1.20 1.17 1.20 1.23 1.20 1.18 1.12 1.08 1.06 0.95 0.81 0.78 0.82 0.91 0.91 0.98 1.00 1.07 1.10 1.10 1.04 0.93 0.85 0.81
0.41 0.46 0.50 0.52 0.54 0.57 0.65 0.73 0.83 0.90 0.91 0.86 0.79 0.76 0.78 0.88 1.07 1.29 1.36 1.21 1.02 1.03 1.01 0.96 0.93 0.90 0.83 0.78 0.76 0.73 0.72 0.77 0.82 0.79 0.93 1.07 1.17 1.24 1.26 1.24 1.14 1.02 0.93

GEFSMW_prec_meanprecacc_174.txt.gz
Total_Precipitation_Accumulation
1.61 2.06 2.68 3.31 4.09 5.16 5.81 5.90 5.51 4.74 4.14 3.62 3.30 2.93 2.67 2.46 2.06 1.69 1.44 1.26 1.18 1.08 1.14 1.07 1.04 1.03 1.00 1.01 1.15 1.31 1.38 1.21 1.36 1.60 1.50 1.25 1.01 0.96 0.93 0.83 0.86 0.86 0.90
1.48 2.08 2.84 3.64 4.24 4.78 5.12 5.11 4.66 3.88 3.36 2.97 2.83 2.54 2.30 1.99 1.75 1.51 1.38 1.16 1.09 1.01 0.97 1.01 0.90 0.86 0.94 0.93 0.97 1.11 1.14 1.02 1.11 1.32 1.39 1.20 1.13 0.92 0.61 0.67 0.70 0.68 0.83
1.65 2.43 3.25 3.97 4.21 4.20 3.97 3.66 3.43 3.04 2.89 2.73 2.48 2.23 2.14 1.87 1.61 1.33 1.19 1.02 0.91 0.84 0.80 0.78 0.74 0.75 0.73 0.78 0.87 0.96 1.05 1.00 0.91 0.96 1.11 1.02 0.97 0.88 0.68 0.55 0.59 0.70 0.81
1.78 2.51 3.08 3.29 3.35 3.21 2.89 2.71 2.63 2.51 2.41 2.28 2.13 1.79 1.55 1.46 1.31 1.17 1.11 1.02 0.91 0.85 0.78 0.69 0.67 0.67 0.61 0.72 0.66 0.76 0.91 0.96 0.81 0.81 0.81 0.81 0.86 0.86 0.82 0.69 0.58 0.69 0.73
1.35 1.59 1.82 1.97 2.07 2.04 2.09 2.13 2.23 2.30 2.15 2.07 2.01 1.85 1.55 1.49 1.46 1.41 1.38 1.26 1.09 0.92 0.76 0.73 0.70 0.70 0.58 0.62 0.65 0.77 0.83 0.87 0.80 0.77 0.79 0.86 0.86 0.74 0.77 0.78 0.74 0.76 0.64
0.83 0.94 1.04 1.16 1.38 1.40 1.46 1.59 1.69 1.81 1.91 1.88 1.72 1.64 1.53 1.56 1.57 1.47 1.30 1.12 1.02 0.91 0.80 0.78 0.84 0.77 0.71 0.70 0.68 0.71 0.74 0.85 0.91 0.88 0.81 0.83 0.86 0.74 0.72 0.66 0.64 0.73 0.68
0.67 0.82 0.94 1.05 1.23 1.14 1.12 1.21 1.31 1.34 1.46 1.46 1.40 1.40 1.46 1.46 1.36 1.25 1.14 0.99 0.82 0.77 0.79 0.77 0.81 0.80 0.83 0.78 0.79 0.79 0.72 0.78 0.87 0.84 0.82 0.79 0.75 0.80 0.83 0.82 0.73 0.77 0.78
0.57 0.66 0.67 0.76 0.86 0.79 0.83 0.93 1.05 1.12 1.16 1.20 1.22 1.22 1.27 1.20 1.15 1.20 1.11 0.95 0.80 0.75 0.74 0.72 0.71 0.76 0.80 0.79 0.94 0.88 0.86 0.88 0.85 0.80 0.95 0.90 0.78 0.87 0.91 0.99 1.08 1.03 1.02
0.44 0.49 0.40 0.44 0.55 0.64 0.70 0.74 0.90 1.01 1.02 1.09 1.11 1.07 1.11 1.14 1.18 1.17 1.06 0.92 0.91 0.83 0.82 0.79 0.85 0.88 0.88 0.92 1.04 1.01 0.97 1.02 0.91 0.88 0.98 0.98 0.95 0.98 0.95 1.10 1.26 1.34 1.28
0.33 0.35 0.33 0.32 0.39 0.51 0.66 0.75 0.85 0.93 0.96 1.03 1.01 0.85 0.97 1.08 1.20 1.15 1.05 0.96 0.99 0.91 0.93 0.91 0.92 0.99 0.96 0.96 1.07 1.08 1.13 1.17 1.12 1.09 1.10 1.09 1.08 1.16 1.09 1.17 1.29 1.37 1.47
0.34 0.32 0.27 0.27 0.29 0.37 0.55 0.67 0.78 0.86 0.88 0.94 1.00 1.05 1.04 0.96 1.04 1.07 1.06 1.08 1.09 1.01 1.00 1.02 1.06 1.06 1.09 1.15 1.21 1.14 1.20 1.31 1.45 1.43 1.39 1.41 1.44 1.42 1.35 1.40 1.39 1.36 1.50
0.29 0.29 0.31 0.32 0.32 0.32 0.42 0.52 0.61 0.74 0.80 0.89 1.01 1.07 1.13 1.02 1.00 1.01 1.08 1.13 1.18 1.21 1.17 1.13 1.12 1.05 1.08 1.23 1.28 1.31 1.33 1.35 1.38 1.53 1.74 1.73 1.67 1.56 1.43 1.49 1.44 1.39 1.58
0.36 0.33 0.36 0.39 0.43 0.41 0.41 0.50 0.60 0.74 0.85 0.93 0.99 1.06 1.12 1.05 1.03 1.13 1.22 1.23 1.33 1.42 1.42 1.35 1.25 1.17 1.16 1.21 1.27 1.34 1.35 1.37 1.44 1.56 1.67 1.74 1.86 1.72 1.58 1.52 1.48 1.51 1.62
0.40 0.32 0.32 0.34 0.39 0.51 0.57 0.61 0.78 0.78 0.77 0.90 0.99 1.06 1.11 1.11 1.14 1.24 1.32 1.33 1.39 1.50 1.55 1.50 1.44 1.41 1.31 1.21 1.18 1.19 1.24 1.38 1.52 1.56 1.51 1.61 1.86 1.93 1.86 1.70 1.62 1.65 1.74
0.39 0.32 0.30 0.31 0.39 0.52 0.55 0.60 0.70 0.89 0.92 1.05 1.18 1.24 1.34 1.41 1.46 1.53 1.54 1.49 1.48 1.49 1.61 1.69 1.68 1.60 1.42 1.20 1.19 1.26 1.22 1.34 1.41 1.39 1.31 1.31 1.49 1.71 1.81 1.67 1.62 1.66 1.66
0.39 0.41 0.43 0.41 0.43 0.48 0.55 0.61 0.65 0.80 0.99 1.24 1.50 1.52 1.60 1.67 1.77 1.90 1.98 1.90 1.85 1.90 1.95 1.90 1.82 1.70 1.35 1.30 1.23 1.21 1.24 1.30 1.31 1.28 1.24 1.13 1.07 1.13 1.29 1.45 1.58 1.68 1.61
0.55 0.57 0.63 0.59 0.56 0.56 0.59 0.65 0.71 0.84 1.06 1.30 1.55 1.73 1.84 1.91 2.01 2.12 2.14 2.08 2.13 2.25 2.28 2.16 1.98 1.83 1.71 1.55 1.31 1.21 1.15 1.16 1.16 1.18 1.17 0.99 0.89 0.98 0.97 1.12 1.25 1.38 1.45
0.63 0.64 0.73 0.77 0.72 0.70 0.77 0.86 0.99 1.14 1.33 1.50 1.68 1.83 1.86 1.88 1.95 2.03 1.98 1.99 2.10 2.17 2.20 2.15 2.02 1.93 1.82 1.64 1.35 1.26 1.10 1.11 1.13 1.15 1.14 1.09 1.03 1.00 1.04 1.06 1.07 1.08 1.15
0.66 0.70 0.76 0.85 0.88 0.89 0.96 1.02 1.11 1.22 1.39 1.53 1.60 1.64 1.75 1.82 1.86 1.89 1.93 1.99 1.99 1.90 1.82 1.81 1.83 1.82 1.85 1.72 1.41 1.28 1.17 1.25 1.25 1.23 1.21 1.21 1.15 1.21 1.08 1.01 1.02 1.03 1.06
0.64 0.73 0.73 0.77 0.86 0.96 0.95 0.98 1.07 1.23 1.42 1.57 1.59 1.60 1.70 1.75 1.79 1.83 1.88 1.87 1.81 1.76 1.72 1.67 1.70 1.72 1.73 1.67 1.33 1.22 1.16 1.27 1.29 1.31 1.29 1.23 1.11 1.09 0.97 0.89 0.96 0.96 0.96
0.64 0.67 0.74 0.80 0.85 0.94 0.97 1.03 1.12 1.23 1.32 1.40 1.45 1.51 1.64 1.75 1.78 1.82 1.80 1.77 1.73 1.76 1.78 1.71 1.63 1.60 1.60 1.61 1.33 1.19 1.09 1.22 1.35 1.33 1.28 1.25 1.14 0.91 0.83 0.80 0.84 0.87 0.90
0.75 0.77 0.82 0.95 1.01 1.05 1.06 1.11 1.08 1.09 1.18 1.19 1.22 1.23 1.32 1.46 1.52 1.58 1.58 1.61 1.58 1.54 1.53 1.51 1.43 1.38 1.41 1.37 1.27 1.09 0.97 1.04 1.19 1.29 1.31 1.31 1.16 0.89 0.76 0.66 0.63 0.61 0.57
0.91 0.88 0.87 0.92 0.98 1.08 1.14 1.18 1.11 1.03 1.01 1.01 0.99 1.02 1.06 1.24 1.39 1.42 1.40 1.42 1.42 1.40 1.36 1.33 1.28 1.25 1.22 1.18 1.01 0.86 0.77 0.81 0.94 1.12 1.28 1.20 1.01 0.83 0.69 0.62 0.57 0.52 0.48
0.66 0.73 0.78 0.86 1.00 0.98 0.99 1.04 1.04 0.98 0.99 1.01 1.01 1.04 1.11 1.22 1.44 1.52 1.41 1.36 1.34 1.29 1.27 1.23 1.23 1.26 1.28 1.22 1.02 0.82 0.68 0.72 0.84 0.95 1.04 1.06 1.04 0.99 0.91 0.78 0.67 0.57 0.58
0.50 0.54 0.60 0.63 0.70 0.72 0.75 0.79 0.83 0.88 0.91 0.90 0.87 0.86 0.94 1.07 1.27 1.39 1.36 1.22 1.19 1.22 1.25 1.23 1.19 1.13 1.10 1.09 0.98 0.84 0.80 0.84 0.93 0.93 1.00 1.02 1.09 1.13 1.13 1.06 0.96 0.88 0.84
0.45 0.51 0.54 0.56 0.58 0.63 0.72 0.80 0.90 0.98 0.97 0.91 0.85 0.82 0.83 0.92 1.11 1.31 1.38 1.23 1.04 1.06 1.04 0.99 0.96 0.93 0.87 0.83 0.81 0.77 0.75 0.80 0.85 0.82 0.96 1.10 1.20 1.27 1.28 1.26 1.15 1.04 0.94

GEFSMW_prec_meanprecacc_180.txt.gz
Total_Precipitation_Accumulation
1.62 2.07 2.69 3.32 4.12 5.22 5.86 5.94 5.60 4.86 4.25 3.72 3.41 3.06 2.78 2.55 2.13 1.76 1.50 1.33 1.25 1.15 1.24 1.14 1.11 1.08 1.06 1.08 1.21 1.39 1.46 1.28 1.42 1.66 1.54 1.28 1.04 0.98 0.95 0.86 0.89 0.90 0.93
1.48 2.08 2.85 3.64 4.25 4.80 5.14 5.17 4.74 3.97 3.45 3.07 2.93 2.62 2.39 2.08 1.83 1.60 1.47 1.24 1.16 1.08 1.04 1.09 0.97 0.92 1.01 0.99 1.05 1.21 1.24 1.10 1.18 1.39 1.46 1.26 1.17 0.96 0.63 0.70 0.73 0.72 0.88
1.66 2.44 3.26 3.99 4.23 4.22 4.00 3.71 3.48 3.08 2.94 2.79 2.55 2.30 2.22 1.97 1.73 1.46 1.30 1.09 0.96 0.89 0.85 0.83 0.80 0.83 0.78 0.85 0.96 1.05 1.17 1.12 0.98 1.00 1.19 1.09 1.03 0.94 0.71 0.58 0.61 0.74 0.85
1.78 2.52 3.09 3.31 3.38 3.24 2.92 2.75 2.67 2.56 2.46 2.34 2.18 1.85 1.61 1.55 1.42 1.30 1.22 1.10 0.97 0.91 0.84 0.73 0.74 0.75 0.67 0.80 0.73 0.82 1.00 1.06 0.90 0.88 0.87 0.87 0.94 0.94 0.89 0.74 0.60 0.71 0.76
1.36 1.60 1.83 1.99 2.09 2.07 2.13 2.17 2.27 2.34 2.20 2.13 2.05 1.91 1.62 1.56 1.55 1.51 1.50 1.37 1.18 1.00 0.82 0.79 0.80 0.78 0.65 0.69 0.74 0.85 0.91 0.95 0.90 0.87 0.87 0.94 0.94 0.81 0.84 0.86 0.81 0.80 0.67
0.84 0.94 1.04 1.16 1.39 1.43 1.50 1.62 1.72 1.85 1.94 1.92 1.77 1.69 1.60 1.63 1.65 1.55 1.38 1.19 1.09 0.99 0.86 0.84 0.92 0.86 0.81 0.78 0.77 0.78 0.81 0.92 1.00 0.99 0.90 0.92 0.95 0.83 0.81 0.73 0.71 0.80 0.73
0.67 0.82 0.94 1.06 1.24 1.16 1.14 1.25 1.35 1.38 1.49 1.49 1.44 1.45 1.52 1.52 1.42 1.32 1.21 1.07 0.88 0.83 0.86 0.84 0.89 0.88 0.91 0.86 0.89 0.88 0.80 0.86 0.97 0.94 0.91 0.88 0.85 0.90 0.93 0.90 0.80 0.84 0.84
0.57 0.66 0.67 0.76 0.88 0.82 0.86 0.96 1.09 1.15 1.17 1.21 1.25 1.25 1.32 1.25 1.19 1.25 1.18 1.03 0.86 0.80 0.79 0.78 0.77 0.81 0.86 0.85 1.04 0.98 0.95 0.96 0.94 0.88 1.04 0.99 0.85 0.94 0.99 1.08 1.18 1.12 1.11
0.44 0.49 0.41 0.44 0.57 0.66 0.72 0.76 0.94 1.04 1.04 1.11 1.13 1.08 1.14 1.18 1.24 1.23 1.11 0.97 0.96 0.87 0.87 0.85 0.91 0.94 0.94 0.97 1.12 1.09 1.05 1.11 1.01 0.98 1.06 1.05 1.01 1.03 0.99 1.15 1.32 1.44 1.40
0.33 0.36 0.34 0.33 0.40 0.52 0.67 0.76 0.88 0.96 0.98 1.06 1.03 0.87 0.99 1.11 1.24 1.19 1.09 1.02 1.04 0.96 0.99 0.99 1.00 1.05 1.02 1.01 1.13 1.16 1.21 1.25 1.19 1.16 1.17 1.16 1.14 1.22 1.15 1.21 1.34 1.45 1.59
0.34 0.32 0.28 0.27 0.29 0.38 0.56 0.68 0.81 0.89 0.91 0.97 1.03 1.06 1.06 0.98 1.07 1.11 1.10 1.12 1.14 1.07 1.07 1.10 1.14 1.12 1.15 1.21 1.29 1.21 1.26 1.37 1.51 1.48 1.44 1.48 1.53 1.50 1.42 1.45 1.44 1.44 1.61
0.29 0.30 0.31 0.33 0.32 0.33 0.43 0.54 0.64 0.78 0.84 0.91 1.02 1.09 1.13 1.04 1.02 1.05 1.12 1.17 1.24 1.28 1.23 1.19 1.20 1.13 1.14 1.28 1.34 1.36 1.38 1.40 1.42 1.58 1.78 1.77 1.72 1.61 1.48 1.54 1.50 1.47 1.67
0.37 0.33 0.37 0.40 0.43 0.42 0.42 0.50 0.62 0.76 0.87 0.94 1.00 1.07 1.13 1.07 1.05 1.16 1.25 1.26 1.39 1.48 1.48 1.42 1.33 1.23 1.20 1.24 1.30 1.38 1.39 1.41 1.49 1.60 1.71 1.78 1.90 1.76 1.62 1.57 1.54 1.58 1.68
0.40 0.33 0.33 0.35 0.40 0.52 0.57 0.62 0.79 0.79 0.77 0.91 1.00 1.08 1.13 1.13 1.16 1.26 1.34 1.35 1.42 1.54 1.62 1.57 1.52 1.48 1.37 1.25 1.22 1.24 1.29 1.43 1.57 1.61 1.56 1.66 1.91 1.98 1.91 1.74 1.66 1.70 1.80
0.40 0.33 0.31 0.32 0.40 0.53 0.56 0.62 0.74 0.91 0.93 1.06 1.19 1.25 1.36 1.44 1.48 1.55 1.56 1.52 1.51 1.52 1.65 1.75 1.75 1.67 1.47 1.25 1.25 1.32 1.28 1.40 1.47 1.44 1.35 1.34 1.53 1.75 1.85 1.70 1.66 1.69 1.70
0.39 0.42 0.44 0.42 0.45 0.49 0.56 0.64 0.68 0.81 1.00 1.25 1.52 1.54 1.63 1.69 1.79 1.93 2.00 1.93 1.87 1.93 1.98 1.94 1.87 1.76 1.39 1.36 1.29 1.27 1.30 1.38 1.39 1.36 1.31 1.19 1.13 1.18 1.34 1.49 1.61 1.72 1.65
0.56 0.57 0.63 0.60 0.57 0.57 0.61 0.68 0.73 0.85 1.08 1.33 1.57 1.76 1.87 1.94 2.03 2.14 2.15 2.09 2.15 2.28 2.31 2.20 2.02 1.88 1.78 1.62 1.38 1.27 1.23 1.25 1.25 1.27 1.25 1.05 0.95 1.03 1.02 1.17 1.29 1.41 1.48
0.63 0.64 0.73 0.78 0.73 0.71 0.78 0.88 1.02 1.16 1.35 1.54 1.72 1.89 1.91 1.92 1.98 2.06 2.00 2.01 2.12 2.19 2.23 2.20 2.08 1.98 1.90 1.74 1.44 1.33 1.16 1.17 1.19 1.21 1.20 1.16 1.09 1.06 1.08 1.10 1.10 1.11 1.17
0.67 0.70 0.76 0.86 0.89 0.91 0.98 1.04 1.14 1.26 1.44 1.61 1.69 1.72 1.81 1.89 1.94 1.97 1.98 2.01 2.01 1.93 1.85 1.83 1.85 1.84 1.89 1.80 1.47 1.32 1.20 1.28 1.29 1.28 1.26 1.26 1.20 1.26 1.11 1.04 1.05 1.06 1.08
0.65 0.74 0.74 0.79 0.87 0.97 0.97 1.01 1.12 1.30 1.51 1.67 1.70 1.69 1.78 1.87 1.94 1.98 1.99 1.92 1.84 1.78 1.74 1.69 1.72 1.73 1.74 1.69 1.35 1.24 1.18 1.29 1.31 1.34 1.33 1.27 1.16 1.13 0.99 0.92 0.99 0.98 0.98
0.65 0.68 0.76 0.82 0.88 0.98 1.01 1.08 1.19 1.31 1.40 1.47 1.54 1.60 1.75 1.88 1.91 1.94 1.89 1.83 1.76 1.78 1.79 1.73 1.64 1.61 1.62 1.64 1.36 1.21 1.10 1.24 1.37 1.35 1.31 1.29 1.19 0.95 0.87 0.83 0.86 0.90 0.93
0.76 0.78 0.83 0.96 1.03 1.09 1.10 1.16 1.14 1.17 1.27 1.27 1.32 1.36 1.46 1.59 1.64 1.69 1.64 1.64 1.61 1.56 1.55 1.53 1.45 1.40 1.43 1.39 1.29 1.10 0.99 1.06 1.21 1.32 1.34 1.34 1.19 0.93 0.81 0.70 0.68 0.66 0.62
0.92 0.89 0.88 0.93 1.00 1.09 1.16 1.20 1.14 1.07 1.06 1.10 1.17 1.21 1.24 1.37 1.50 1.52 1.46 1.46 1.45 1.41 1.38 1.34 1.29 1.27 1.25 1.21 1.04 0.89 0.80 0.84 0.96 1.14 1.30 1.22 1.03 0.86 0.72 0.66 0.61 0.55 0.51
0.68 0.76 0.81 0.88 1.02 0.99 1.01 1.06 1.09 1.06 1.10 1.14 1.14 1.16 1.19 1.29 1.50 1.58 1.46 1.38 1.35 1.31 1.28 1.24 1.25 1.28 1.30 1.25 1.06 0.86 0.71 0.75 0.86 0.96 1.05 1.07 1.05 1.00 0.92 0.80 0.69 0.60 0.62
0.53 0.57 0.62 0.65 0.72 0.74 0.77 0.81 0.87 0.93 0.97 0.96 0.92 0.90 0.97 1.10 1.30 1.42 1.38 1.25 1.21 1.25 1.27 1.25 1.22 1.16 1.12 1.12 1.02 0.87 0.84 0.88 0.95 0.95 1.01 1.04 1.11 1.16 1.16 1.11 1.02 0.95 0.90
0.46 0.51 0.55 0.57 0.59 0.64 0.73 0.82 0.95 1.06 1.03 0.94 0.88 0.86 0.86 0.95 1.14 1.34 1.41 1.25 1.06 1.08 1.07 1.02 0.99 0.96 0.90 0.87 0.85 0.82 0.79 0.84 0.88 0.85 0.98 1.13 1.23 1.31 1.32 1.30 1.19 1.06 0.95

GEFSMW_prec_meanprecacc_186.txt.gz
Total_Precipitation_Accumulation
1.62 2.07 2.70 3.34 4.14 5.24 5.90 5.99 5.65 4.92 4.36 3.83 3.52 3.17 2.89 2.65 2.21 1.83 1.59 1.41 1.31 1.23 1.33 1.22 1.20 1.14 1.14 1.16 1.28 1.48 1.56 1.37 1.50 1.75 1.62 1.32 1.06 1.02 0.97 0.88 0.91 0.92 0.95
1.49 2.09 2.86 3.65 4.27 4.81 5.17 5.21 4.79 4.03 3.52 3.16 3.05 2.73 2.48 2.15 1.92 1.69 1.58 1.33 1.22 1.15 1.11 1.20 1.05 0.99 1.10 1.07 1.14 1.33 1.37 1.20 1.26 1.51 1.61 1.40 1.29 1.03 0.67 0.73 0.77 0.76 0.93
1.66 2.45 3.28 4.01 4.26 4.24 4.03 3.75 3.54 3.14 3.00 2.88 2.65 2.40 2.31 2.03 1.83 1.57 1.40 1.18 1.02 0.93 0.90 0.89 0.87 0.91 0.84 0.95 1.07 1.18 1.33 1.28 1.08 1.09 1.34 1.27 1.22 1.10 0.81 0.65 0.68 0.80 0.93
1.79 2.53 3.10 3.33 3.42 3.29 2.96 2.79 2.72 2.61 2.53 2.42 2.26 1.93 1.70 1.63 1.51 1.39 1.32 1.20 1.05 0.97 0.89 0.78 0.80 0.82 0.73 0.92 0.80 0.93 1.14 1.22 1.04 1.00 0.97 1.01 1.08 1.11 1.04 0.86 0.71 0.85 0.89
1.36 1.60 1.83 2.00 2.11 2.11 2.17 2.21 2.32 2.40 2.27 2.20 2.12 1.98 1.71 1.66 1.64 1.58 1.59 1.47 1.29 1.08 0.88 0.86 0.89 0.88 0.74 0.78 0.83 0.97 1.01 1.06 1.01 1.00 0.99 1.10 1.11 0.96 0.99 1.03 0.97 0.94 0.77
0.84 0.94 1.04 1.18 1.42 1.46 1.55 1.68 1.78 1.90 2.01 1.99 1.83 1.76 1.68 1.72 1.75 1.65 1.47 1.28 1.18 1.09 0.96 0.95 1.06 0.99 0.93 0.87 0.86 0.89 0.92 1.06 1.15 1.13 1.01 1.04 1.09 0.98 0.96 0.87 0.87 0.94 0.84
0.67 0.82 0.94 1.07 1.26 1.19 1.20 1.33 1.41 1.44 1.55 1.55 1.49 1.51 1.59 1.60 1.51 1.42 1.32 1.17 0.98 0.95 0.98 0.95 1.03 1.00 1.02 0.97 1.02 1.02 0.93 1.01 1.11 1.06 1.02 0.98 0.95 1.00 1.04 1.02 0.92 0.96 0.96
0.57 0.66 0.67 0.77 0.89 0.84 0.91 1.01 1.14 1.20 1.22 1.27 1.30 1.30 1.39 1.32 1.27 1.35 1.27 1.13 0.94 0.87 0.86 0.87 0.88 0.92 0.96 0.94 1.17 1.08 1.07 1.08 1.04 0.97 1.15 1.10 0.95 1.04 1.10 1.19 1.30 1.26 1.26
0.44 0.50 0.41 0.45 0.58 0.68 0.74 0.79 0.96 1.07 1.07 1.16 1.20 1.15 1.20 1.25 1.31 1.31 1.20 1.05 1.05 0.94 0.95 0.94 1.02 1.07 1.06 1.08 1.24 1.21 1.16 1.23 1.11 1.07 1.16 1.14 1.10 1.12 1.07 1.25 1.44 1.58 1.54
0.33 0.36 0.34 0.33 0.41 0.54 0.69 0.78 0.89 0.98 1.01 1.10 1.08 0.92 1.04 1.16 1.31 1.26 1.17 1.10 1.12 1.04 1.07 1.08 1.10 1.16 1.12 1.12 1.26 1.27 1.32 1.35 1.28 1.26 1.26 1.24 1.21 1.30 1.22 1.29 1.42 1.55 1.72
0.35 0.33 0.28 0.27 0.30 0.39 0.58 0.71 0.82 0.91 0.94 1.00 1.06 1.10 1.09 1.01 1.12 1.17 1.16 1.19 1.21 1.14 1.14 1.18 1.23 1.20 1.23 1.32 1.41 1.31 1.35 1.46 1.60 1.55 1.51 1.56 1.62 1.58 1.49 1.52 1.52 1.54 1.74
0.29 0.30 0.32 0.33 0.33 0.34 0.45 0.56 0.67 0.80 0.86 0.93 1.05 1.12 1.17 1.07 1.07 1.10 1.18 1.23 1.30 1.34 1.29 1.25 1.27 1.19 1.21 1.37 1.42 1.42 1.44 1.46 1.48 1.63 1.84 1.82 1.78 1.67 1.53 1.61 1.57 1.56 1.79
0.38 0.34 0.37 0.40 0.44 0.42 0.43 0.52 0.65 0.78 0.89 0.97 1.03 1.11 1.17 1.12 1.10 1.23 1.33 1.34 1.45 1.54 1.54 1.50 1.41 1.31 1.28 1.33 1.38 1.43 1.44 1.48 1.55 1.66 1.75 1.82 1.94 1.81 1.67 1.63 1.61 1.66 1.78
0.43 0.35 0.33 0.35 0.40 0.52 0.57 0.63 0.80 0.81 0.80 0.95 1.06 1.14 1.20 1.21 1.22 1.32 1.41 1.43 1.49 1.60 1.68 1.64 1.58 1.54 1.44 1.32 1.30 1.31 1.36 1.50 1.63 1.67 1.61 1.72 1.97 2.04 1.97 1.80 1.74 1.79 1.90
0.40 0.33 0.31 0.32 0.41 0.54 0.57 0.62 0.74 0.92 0.95 1.11 1.25 1.32 1.43 1.49 1.52 1.59 1.61 1.57 1.57 1.57 1.71 1.80 1.80 1.72 1.54 1.32 1.32 1.40 1.37 1.50 1.55 1.50 1.41 1.41 1.60 1.82 1.92 1.77 1.74 1.79 1.80
0.40 0.42 0.44 0.43 0.46 0.51 0.58 0.65 0.69 0.84 1.02 1.28 1.56 1.60 1.68 1.74 1.83 1.97 2.04 1.96 1.92 1.97 2.02 1.99 1.92 1.81 1.47 1.46 1.40 1.40 1.44 1.52 1.50 1.43 1.37 1.25 1.20 1.24 1.40 1.55 1.67 1.78 1.73
0.56 0.58 0.64 0.61 0.59 0.58 0.63 0.70 0.76 0.89 1.12 1.37 1.62 1.82 1.92 1.99 2.08 2.18 2.20 2.13 2.20 2.33 2.35 2.24 2.06 1.92 1.82 1.67 1.44 1.37 1.33 1.34 1.34 1.35 1.32 1.12 1.01 1.10 1.07 1.23 1.36 1.48 1.55
0.64 0.65 0.74 0.79 0.74 0.72 0.80 0.91 1.06 1.21 1.40 1.60 1.79 1.94 1.96 1.97 2.03 2.11 2.05 2.07 2.18 2.25 2.28 2.24 2.12 2.01 1.92 1.76 1.45 1.36 1.20 1.21 1.24 1.26 1.25 1.20 1.13 1.10 1.14 1.16 1.16 1.17 1.25
0.68 0.72 0.78 0.87 0.91 0.92 0.99 1.06 1.17 1.31 1.50 1.66 1.75 1.77 1.85 1.93 1.99 2.02 2.06 2.09 2.09 1.99 1.91 1.88 1.89 1.87 1.93 1.84 1.50 1.33 1.21 1.31 1.32 1.31 1.30 1.29 1.23 1.30 1.15 1.07 1.09 1.11 1.16
0.65 0.75 0.76 0.80 0.89 0.98 0.99 1.02 1.14 1.33 1.54 1.70 1.74 1.73 1.83 1.92 1.99 2.04 2.08 2.01 1.93 1.88 1.83 1.75 1.76 1.76 1.77 1.72 1.36 1.25 1.19 1.31 1.33 1.36 1.35 1.30 1.19 1.17 1.04 0.96 1.04 1.04 1.06
0.65 0.69 0.77 0.84 0.89 0.98 1.02 1.09 1.20 1.33 1.43 1.49 1.57 1.65 1.79 1.93 1.98 2.00 1.96 1.90 1.83 1.84 1.85 1.77 1.68 1.64 1.64 1.65 1.37 1.22 1.11 1.25 1.38 1.37 1.33 1.32 1.24 1.00 0.92 0.88 0.91 0.95 0.98
0.76 0.79 0.85 0.98 1.05 1.11 1.12 1.18 1.17 1.20 1.30 1.30 1.36 1.40 1.50 1.64 1.69 1.74 1.69 1.69 1.66 1.62 1.60 1.56 1.48 1.42 1.44 1.40 1.31 1.12 1.00 1.08 1.23 1.34 1.36 1.38 1.23 0.96 0.84 0.73 0.71 0.69 0.65
0.94 0.91 0.90 0.97 1.04 1.13 1.20 1.23 1.17 1.10 1.09 1.13 1.20 1.24 1.27 1.41 1.54 1.57 1.51 1.49 1.48 1.45 1.41 1.37 1.32 1.30 1.28 1.23 1.07 0.92 0.83 0.87 1.00 1.18 1.33 1.25 1.06 0.88 0.74 0.67 0.63 0.57 0.53
0.71 0.79 0.84 0.91 1.06 1.04 1.05 1.10 1.13 1.11 1.14 1.18 1.18 1.20 1.24 1.33 1.55 1.63 1.50 1.41 1.38 1.33 1.31 1.27 1.27 1.31 1.34 1.28 1.09 0.89 0.75 0.78 0.89 0.98 1.07 1.09 1.07 1.01 0.93 0.81 0.70 0.61 0.64
0.55 0.59 0.64 0.67 0.74 0.76 0.80 0.84 0.89 0.96 1.00 0.99 0.96 0.95 1.02 1.14 1.34 1.45 1.42 1.28 1.24 1.28 1.30 1.27 1.24 1.18 1.15 1.16 1.06 0.90 0.86 0.90 0.97 0.97 1.03 1.05 1.13 1.17 1.18 1.13 1.05 0.97 0.93
0.48 0.53 0.56 0.58 0.60 0.65 0.74 0.84 0.97 1.08 1.06 0.98 0.92 0.91 0.90 0.99 1.17 1.37 1.44 1.29 1.10 1.12 1.11 1.05 1.01 0.97 0.93 0.90 0.89 0.85 0.83 0.88 0.92 0.87 1.00 1.15 1.26 1.33 1.34 1.32 1.21 1.08 0.97